[[{"header":{"parameterUnit":"m.s-1","parameterCategory":2,"la1":30.2991,"la2":30.254,"lo1":-89.0895,"lo2":-89.0444,"dy":0.0017,"dx":0.0017,"nx":28,"ny":28,"refTime":"2025-07-09T03:00:00:Z","depth":"0","parameterNumber":2,"parameterNumberName":"U-component_of_CURRENTS"},"data":[0,0,0,0,0,0,0,0,0,0,0,0,0,0,0,0,0,0,0,0,0,0,0,0,0,0,0,0,0,0,0,0,0,0,0,0,0,0,0,0,0,0,0,0,0,0,0,0,0,0,0,0,0,0,0,0,0,0,0.057,0.057,0,0.0562,0.0562,0.0562,0.0542,0.0541,0.0541,0.054,0.0524,0.0524,0.0524,0,0,0,0,0,0,0,0,0,0,0,0,0,0.0595,0.0594,0.057,0.057,0.057,0.0562,0.0562,0.0562,0.0542,0.0541,0.0541,0.054,0.0524,0.0524,0.0524,0,0,0,0,0,0,0,0,0,0,0,0,0,0.0585,0.0594,0.057,0.0559,0.0558,0.0563,0.0562,0.0562,0.0542,0.0541,0.054,0.054,0.0524,0.0524,0.0524,0.0536,0,0,0.0524,0.0524,0,0,0,0,0,0,0,0,0.0585,0.0584,0.0561,0.056,0.0559,0.0553,0.0565,0.0553,0.0542,0.0548,0.054,0.054,0.0534,0.0533,0.0532,0.0536,0.0535,0.0524,0.0524,0.0524,0.0524,0,0,0,0,0,0,0,0.0586,0.0584,0.0567,0.0561,0.056,0.0564,0.0562,0.0563,0.0544,0.0547,0.0546,0.0546,0.0533,0.0533,0.0532,0.0535,0.0524,0.0524,0.0524,0.0524,0.0537,0.0538,0,0,0,0,0,0,0.0587,0.0585,0.0567,0.0567,0.0571,0.0564,0.0561,0.0555,0.0544,0.0542,0.0546,0.0545,0.0533,0.0532,0.0531,0.0541,0.0524,0.0524,0.0524,0.0537,0.0537,0.0538,0,0,0,0,0,0,0.0587,0.0585,0.0567,0.0576,0.0574,0.0564,0.0557,0.0555,0.0557,0.0543,0.0541,0.055,0.0532,0.0531,0.0537,0.054,0.0524,0.0524,0.0536,0.0537,0.0538,0.0563,0,0,0,0,0,0,0.0588,0.0585,0.0588,0.0576,0.0574,0.0577,0.0558,0.0555,0.0558,0.0556,0.0546,0.0544,0.0532,0.0537,0.0537,0.054,0.0524,0.0536,0.0537,0.0537,0.0562,0.0564,0.0567,0,0,0,0,0,0.0589,0.0596,0.0588,0.0586,0.0575,0.0578,0.0577,0.0568,0.0559,0.0566,0.0557,0.0544,0.0541,0.0538,0.0537,0.054,0.0536,0.0537,0.0537,0.056,0.0564,0.0566,0,0,0,0,0,0,0.0606,0.0594,0.0585,0.0587,0.0585,0.0574,0.0585,0.0574,0.0573,0.0573,0.0554,0.0552,0.0557,0.0548,0.0545,0.0546,0.0534,0.0535,0.0552,0.0555,0.0558,0.0558,0.0524,0,0,0,0,0,0.0611,0.0617,0.0602,0.0608,0.0607,0.0597,0.0598,0.0591,0.0586,0.0585,0.0574,0.0565,0.056,0.0558,0.0555,0.056,0.0565,0.056,0.0563,0.0565,0.0565,0.0562,0.0564,0.0541,0.0541,0.0541,0,0,0.0625,0.0617,0.0622,0.0614,0.0612,0.0617,0.0597,0.0605,0.0605,0.0584,0.0587,0.0578,0.0565,0.0567,0.0568,0.056,0.0583,0.0566,0.0568,0.0567,0.0563,0.0565,0.0567,0.0541,0.0541,0.0541,0,0,0.0662,0.0643,0.0665,0.0659,0.0657,0.0643,0.0646,0.0636,0.0628,0.0631,0.0612,0.0605,0.0602,0.0587,0.058,0.0596,0.0598,0.0597,0.0608,0.0605,0.0606,0.0608,0.0654,0.0659,0.0595,0.0595,0.0595,0,0.0676,0.0691,0.0674,0.0686,0.068,0.0655,0.0668,0.0659,0.065,0.0641,0.0637,0.0618,0.0609,0.0599,0.0603,0.0601,0.0617,0.0597,0.0608,0.0609,0.061,0.0656,0.0662,0.0597,0.0596,0.0596,0.0596,0,0.0736,0.0734,0.0745,0.0745,0.0737,0.0745,0.0718,0.0712,0.0694,0.0677,0.0666,0.0651,0.0636,0.0632,0.0624,0.0623,0.0642,0.0614,0.06,0.0614,0.0663,0.0668,0.0599,0.0598,0.0598,0.0597,0,0,0.0805,0.0788,0.0795,0.0777,0.0763,0.0753,0.0752,0.0734,0.0719,0.0708,0.0697,0.0683,0.0665,0.0657,0.0641,0.0636,0.067,0.0632,0.0631,0.068,0.0705,0.0962,0.0992,0.0643,0.0643,0.0643,0.075,0,0.0857,0.0872,0.0856,0.0853,0.0845,0.0805,0.0794,0.0769,0.0747,0.0729,0.0704,0.069,0.0677,0.0669,0.0664,0.0664,0.0679,0.0646,0.0683,0.0685,0.0911,0.1005,0.1256,0.1393,0.0755,0.0756,0.0757,0,0.0937,0.0917,0.0926,0.0864,0.0859,0.0849,0.0803,0.079,0.0757,0.0743,0.0728,0.0711,0.0711,0.0689,0.0711,0.0693,0.0707,0.0708,0.0711,0.0943,0.0952,0.1268,0.1427,0.1434,0.0765,0.0764,0.0763,0,0.0989,0.0967,0.0962,0.0948,0.0885,0.0869,0.0834,0.0795,0.0764,0.0752,0.0751,0.0739,0.0754,0.0745,0.0796,0.0739,0.0846,0.0759,0.1005,0.1023,0.1244,0.1284,0.1418,0.0775,0.0775,0.0774,0.0774,0,0.1049,0.1042,0.0975,0.0964,0.0913,0.088,0.083,0.0805,0.0773,0.0768,0.0757,0.0797,0.0767,0.0833,0.083,0.1005,0.0885,0.1053,0.1081,0.1269,0.1308,0.1328,0.1241,0.0779,0.0778,0.0777,0.0776,0,0.1112,0.1087,0.1041,0.0964,0.0933,0.089,0.0797,0.0757,0.0764,0.077,0.0776,0.0842,0.0998,0.1025,0.107,0.111,0.1253,0.1273,0.1543,0.1605,0.1849,0.1755,0.1788,0.1788,0.1549,0.1556,0.1562,0,0.115,0.114,0.1026,0.0952,0.0908,0.0832,0.0769,0.0741,0.0726,0.0832,0.0856,0.103,0.1237,0.1465,0.1604,0.1748,0.1568,0.1981,0.1917,0.1963,0.1872,0.166,0.1635,0.2209,0.222,0.2229,0.2236,0,0.1179,0.1137,0.107,0.0915,0.0826,0.0761,0.0706,0.0721,0.0753,0.0861,0.1091,0.1294,0.164,0.2002,0.2229,0.2297,0.2033,0.2173,0.2123,0.2361,0.2229,0.2214,0.2039,0.2316,0.2308,0.2302,0.2298,0.2294,0.1172,0.1111,0.0991,0.0842,0.0754,0.074,0.0784,0.0815,0.0938,0.1218,0.1335,0.1743,0.2209,0.2657,0.27,0.2959,0.2643,0.2947,0.2817,0.2586,0.2638,0.2699,0.3068,0.3064,0.3061,0.3058,0.3056,0,0.1133,0.1045,0.0907,0.0778,0.0727,0.0701,0.0768,0.0906,0.1181,0.1449,0.1775,0.2375,0.2894,0.3148,0.357,0.3589,0.3365,0.35,0.3216,0.3146,0.318,0.3271,0.3823,0.3823,0.3823,0.3823,0.3823,0.3823,0.1098,0.0969,0.0884,0.0777,0.0741,0.0849,0.0969,0.1207,0.1447,0.1948,0.2307,0.2567,0.3007,0.3642,0.3928,0.3891,0.3599,0.3615,0.3345,0.3369,0.3303,0.3239,0.3308,0.3858,0.3858,0.3367,0.3364,0.3361]},{"header":{"parameterUnit":"m.s-1","parameterCategory":2,"la1":30.2991,"la2":30.254,"lo1":-89.0895,"lo2":-89.0444,"dy":0.0017,"dx":0.0017,"nx":28,"ny":28,"refTime":"2025-07-09T03:00:00:Z","depth":"0","parameterNumber":3,"parameterNumberName":"V-component_of_CURRENTS"},"data":[0,0,0,0,0,0,0,0,0,0,0,0,0,0,0,0,0,0,0,0,0,0,0,0,0,0,0,0,0,0,0,0,0,0,0,0,0,0,0,0,0,0,0,0,0,0,0,0,0,0,0,0,0,0,0,0,0,0,-0.1014,-0.1015,0,-0.1063,-0.1063,-0.1064,-0.1064,-0.1063,-0.1063,-0.1063,-0.11,-0.1102,-0.1103,0,0,0,0,0,0,0,0,0,0,0,0,0,-0.0861,-0.0864,-0.1014,-0.1015,-0.1016,-0.1063,-0.1063,-0.1064,-0.1064,-0.1063,-0.1063,-0.1062,-0.11,-0.1101,-0.1103,0,0,0,0,0,0,0,0,0,0,0,0,0,-0.0919,-0.0865,-0.1014,-0.1023,-0.1024,-0.1063,-0.1063,-0.1064,-0.1064,-0.1063,-0.1063,-0.1062,-0.1099,-0.1101,-0.1103,-0.1131,0,0,-0.111,-0.1111,0,0,0,0,0,0,0,0,-0.0916,-0.0925,-0.1021,-0.1022,-0.1024,-0.1058,-0.1023,-0.1086,-0.1064,-0.1047,-0.1063,-0.1062,-0.1087,-0.109,-0.1098,-0.1132,-0.1134,-0.111,-0.1111,-0.1112,-0.1113,0,0,0,0,0,0,0,-0.0912,-0.0922,-0.1032,-0.1021,-0.1023,-0.1004,-0.1011,-0.1035,-0.1069,-0.1049,-0.1049,-0.1057,-0.1087,-0.1096,-0.1099,-0.1135,-0.111,-0.1112,-0.1113,-0.1114,-0.1203,-0.1204,0,0,0,0,0,0,-0.0914,-0.0919,-0.103,-0.1033,-0.0969,-0.1007,-0.1016,-0.1046,-0.1069,-0.1072,-0.1058,-0.1057,-0.1093,-0.1097,-0.11,-0.1168,-0.1112,-0.1114,-0.1116,-0.1202,-0.1203,-0.1204,0,0,0,0,0,0,-0.0911,-0.0924,-0.1028,-0.0977,-0.0989,-0.1011,-0.1045,-0.1048,-0.1058,-0.1076,-0.1079,-0.1066,-0.1092,-0.1097,-0.1128,-0.1168,-0.1115,-0.1117,-0.1201,-0.1202,-0.1204,-0.1281,0,0,0,0,0,0,-0.0907,-0.0924,-0.0948,-0.0978,-0.0992,-0.1063,-0.1046,-0.1049,-0.1065,-0.1065,-0.1084,-0.1087,-0.1092,-0.1125,-0.113,-0.117,-0.1119,-0.1199,-0.1201,-0.1203,-0.1277,-0.1285,-0.1292,0,0,0,0,0,-0.0902,-0.0949,-0.0949,-0.0963,-0.1025,-0.1064,-0.107,-0.108,-0.1066,-0.1083,-0.1091,-0.1086,-0.1141,-0.1128,-0.1133,-0.1175,-0.1198,-0.1201,-0.1203,-0.1274,-0.1284,-0.1292,0,0,0,0,0,0,-0.089,-0.0954,-0.0955,-0.1017,-0.1039,-0.1065,-0.109,-0.1083,-0.1103,-0.1103,-0.1103,-0.1108,-0.1146,-0.1146,-0.1131,-0.1203,-0.1168,-0.1172,-0.122,-0.1229,-0.1236,-0.125,-0.1121,0,0,0,0,0,-0.09,-0.0961,-0.0991,-0.1041,-0.1055,-0.1067,-0.1083,-0.1089,-0.1108,-0.1115,-0.1125,-0.1139,-0.1162,-0.1182,-0.1196,-0.1244,-0.1214,-0.1271,-0.1279,-0.1285,-0.1299,-0.1289,-0.1297,-0.1212,-0.1212,-0.1212,0,0,-0.0913,-0.0953,-0.0988,-0.1043,-0.1063,-0.1106,-0.1076,-0.1111,-0.1144,-0.1118,-0.1165,-0.1162,-0.1175,-0.1224,-0.1243,-0.1233,-0.1288,-0.1288,-0.1294,-0.1304,-0.1292,-0.13,-0.1308,-0.1214,-0.1213,-0.1213,0,0,-0.0975,-0.1,-0.107,-0.1093,-0.1131,-0.1138,-0.1147,-0.1172,-0.118,-0.1222,-0.1207,-0.1224,-0.1267,-0.1282,-0.1296,-0.1352,-0.1319,-0.1359,-0.1425,-0.1415,-0.1422,-0.1428,-0.1376,-0.1376,-0.1374,-0.1374,-0.1374,0,-0.0976,-0.1073,-0.109,-0.1151,-0.1171,-0.1156,-0.1206,-0.1224,-0.1252,-0.1256,-0.1249,-0.1287,-0.1298,-0.1347,-0.1379,-0.1372,-0.1346,-0.1393,-0.1425,-0.143,-0.1435,-0.138,-0.138,-0.1378,-0.1378,-0.1377,-0.1377,0,-0.1099,-0.1154,-0.1192,-0.1267,-0.1286,-0.1327,-0.134,-0.1354,-0.1351,-0.1357,-0.1385,-0.1394,-0.1405,-0.1426,-0.1435,-0.1478,-0.1439,-0.1426,-0.1404,-0.1448,-0.1387,-0.1386,-0.1384,-0.1382,-0.1381,-0.138,0,0,-0.1143,-0.1256,-0.127,-0.1283,-0.1343,-0.1351,-0.1412,-0.1438,-0.1426,-0.1474,-0.1468,-0.1544,-0.151,-0.1523,-0.1517,-0.1542,-0.1553,-0.1519,-0.1516,-0.1469,-0.1504,-0.1379,-0.1364,-0.1551,-0.1552,-0.1552,-0.1438,0,-0.1221,-0.134,-0.1384,-0.1444,-0.1478,-0.1473,-0.1499,-0.1512,-0.1508,-0.1492,-0.1519,-0.15,-0.1557,-0.1526,-0.158,-0.1532,-0.1557,-0.1583,-0.1467,-0.1462,-0.1349,-0.1362,-0.1226,-0.1106,-0.1436,-0.1436,-0.1436,0,-0.1323,-0.1376,-0.147,-0.1475,-0.1485,-0.1507,-0.1486,-0.1507,-0.1501,-0.1487,-0.1511,-0.149,-0.1525,-0.1542,-0.1559,-0.1571,-0.1564,-0.155,-0.1544,-0.1405,-0.1336,-0.112,-0.109,-0.1252,-0.1433,-0.1433,-0.1433,0,-0.132,-0.1414,-0.1475,-0.1492,-0.1518,-0.152,-0.151,-0.1502,-0.1447,-0.145,-0.1372,-0.1455,-0.1375,-0.1462,-0.1442,-0.1499,-0.1417,-0.1471,-0.136,-0.1348,-0.1197,-0.1171,-0.1312,-0.15,-0.15,-0.15,-0.15,0,-0.1371,-0.1399,-0.1461,-0.1482,-0.1462,-0.1484,-0.1426,-0.1429,-0.1362,-0.1226,-0.1333,-0.1199,-0.1348,-0.1306,-0.1397,-0.1332,-0.1371,-0.1366,-0.1319,-0.1215,-0.1193,-0.1296,-0.1438,-0.1496,-0.1497,-0.1498,-0.1498,0,-0.1348,-0.1419,-0.1446,-0.1475,-0.146,-0.143,-0.1327,-0.1245,-0.1212,-0.1027,-0.0997,-0.0963,-0.0899,-0.1023,-0.1062,-0.1159,-0.1223,-0.1151,-0.0997,-0.0936,-0.1035,-0.1184,-0.1198,-0.1296,-0.1049,-0.1045,-0.1042,0,-0.1335,-0.1371,-0.1409,-0.1372,-0.1374,-0.1313,-0.1223,-0.1175,-0.1032,-0.0821,-0.0676,-0.0588,-0.0419,-0.0463,-0.0656,-0.0778,-0.0998,-0.0754,-0.0875,-0.102,-0.1153,-0.1229,-0.1321,-0.0692,-0.0686,-0.0681,-0.0678,0,-0.1274,-0.1317,-0.1341,-0.1278,-0.1196,-0.1062,-0.0914,-0.0769,-0.0614,-0.0414,-0.0084,0.0059,0.0024,0.0016,-0.0201,-0.0344,-0.085,-0.066,-0.0863,-0.0935,-0.0975,-0.1048,-0.0776,-0.0636,-0.064,-0.0643,-0.0646,-0.0647,-0.1184,-0.1197,-0.1221,-0.1136,-0.1017,-0.0751,-0.0514,-0.0316,0.0003,0.0439,0.0442,0.0793,0.0603,0.0344,0.006,-0.0384,-0.052,-0.0515,-0.069,-0.0756,-0.0855,-0.0473,-0.0255,-0.0257,-0.0259,-0.026,-0.0262,0,-0.1041,-0.108,-0.1034,-0.0871,-0.062,-0.06,-0.0231,0.0094,0.0576,0.0878,0.1212,0.1405,0.1152,0.0694,0.0084,-0.0314,-0.0561,-0.0575,-0.0717,-0.0826,-0.0495,-0.0487,-0.0246,-0.0246,-0.0246,-0.0246,-0.0246,-0.0246,-0.0951,-0.0933,-0.094,-0.052,-0.0327,0.0169,0.0456,0.0851,0.1172,0.1718,0.1995,0.2123,0.1811,0.0662,-0.0186,-0.048,-0.0905,-0.088,-0.1178,-0.1021,-0.1032,-0.1042,-0.107,-0.0955,-0.0956,-0.1392,-0.1397,-0.1401]}],[{"header":{"parameterUnit":"m.s-1","parameterCategory":2,"la1":30.2991,"la2":30.254,"lo1":-89.0895,"lo2":-89.0444,"dy":0.0017,"dx":0.0017,"nx":28,"ny":28,"refTime":"2025-07-09T03:00:00:Z","depth":"2","parameterNumber":2,"parameterNumberName":"U-component_of_CURRENTS"},"data":[0,0,0,0,0,0,0,0,0,0,0,0,0,0,0,0,0,0,0,0,0,0,0,0,0,0,0,0,0,0,0,0,0,0,0,0,0,0,0,0,0,0,0,0,0,0,0,0,0,0,0,0,0,0,0,0,0,0,0.021,0.021,0,0.0243,0.0244,0.0244,0.0237,0.0236,0.0236,0.0235,0.0215,0.0215,0.0215,0,0,0,0,0,0,0,0,0,0,0,0,0,0.0131,0.0133,0.021,0.021,0.0211,0.0243,0.0244,0.0244,0.0237,0.0236,0.0236,0.0235,0.0215,0.0215,0.0215,0,0,0,0,0,0,0,0,0,0,0,0,0,0.0164,0.0133,0.021,0.0212,0.0213,0.0243,0.0244,0.0244,0.0237,0.0236,0.0235,0.0235,0.0215,0.0215,0.0215,0.0229,0,0,0.0215,0.0215,0,0,0,0,0,0,0,0,0.0162,0.0166,0.0211,0.0212,0.0213,0.0237,0.0209,0.0237,0.0237,0.0226,0.0235,0.0234,0.0219,0.0218,0.0225,0.0228,0.0227,0.0215,0.0215,0.0214,0.0214,0,0,0,0,0,0,0,0.016,0.0165,0.0221,0.0212,0.0213,0.0209,0.0213,0.0214,0.0224,0.0227,0.0227,0.0233,0.0219,0.0225,0.0224,0.0227,0.0215,0.0214,0.0214,0.0214,0.0257,0.0258,0,0,0,0,0,0,0.016,0.0163,0.022,0.0223,0.0187,0.0212,0.0216,0.0228,0.0225,0.0225,0.0234,0.0233,0.0226,0.0224,0.0223,0.0227,0.0214,0.0214,0.0214,0.0255,0.0257,0.0258,0,0,0,0,0,0,0.0159,0.0165,0.0219,0.0194,0.0201,0.0214,0.0228,0.0229,0.0239,0.0231,0.0229,0.0242,0.0225,0.0224,0.0239,0.0227,0.0214,0.0214,0.0254,0.0256,0.0257,0.0242,0,0,0,0,0,0,0.0156,0.0165,0.0174,0.0195,0.0203,0.0233,0.0229,0.0231,0.0244,0.0243,0.0238,0.0235,0.0224,0.024,0.0239,0.0226,0.0214,0.0252,0.0255,0.0257,0.0241,0.0243,0.0245,0,0,0,0,0,0.0154,0.0167,0.0175,0.0182,0.0216,0.0234,0.0237,0.0242,0.0246,0.0248,0.0258,0.0235,0.0253,0.0241,0.024,0.0226,0.0251,0.0254,0.0257,0.024,0.0243,0.0245,0,0,0,0,0,0,0.0133,0.0169,0.0177,0.02,0.0215,0.0233,0.0242,0.0249,0.026,0.0262,0.0254,0.0253,0.026,0.026,0.0246,0.0251,0.0247,0.025,0.0235,0.0237,0.0239,0.0242,0.0214,0,0,0,0,0,0.0137,0.016,0.0184,0.0203,0.0212,0.023,0.024,0.0245,0.0259,0.0264,0.0263,0.0268,0.0272,0.0268,0.0274,0.0277,0.0302,0.0271,0.0273,0.0274,0.0279,0.029,0.0292,0.0267,0.0267,0.0267,0,0,0.0135,0.0158,0.0171,0.0201,0.0216,0.0232,0.0234,0.0251,0.026,0.026,0.0273,0.0277,0.0279,0.0282,0.0284,0.0276,0.0307,0.0277,0.0278,0.0283,0.0293,0.0295,0.0297,0.0269,0.0268,0.0268,0,0,0.015,0.0164,0.0192,0.0205,0.0231,0.0237,0.0244,0.0265,0.0267,0.0284,0.0287,0.0293,0.0298,0.0294,0.0293,0.0315,0.0321,0.0313,0.0312,0.0322,0.0324,0.0325,0.0408,0.0416,0.0306,0.0306,0.0306,0,0.0146,0.0183,0.0199,0.0224,0.023,0.0241,0.0257,0.0265,0.0287,0.0285,0.0286,0.0302,0.0301,0.0302,0.0311,0.0314,0.0348,0.0295,0.0322,0.0323,0.0325,0.0409,0.0419,0.0306,0.0306,0.0306,0.0306,0,0.0186,0.0206,0.022,0.0254,0.0259,0.0274,0.0282,0.0286,0.0287,0.0291,0.0296,0.0304,0.0304,0.0307,0.0314,0.0323,0.0358,0.0325,0.0308,0.0326,0.0415,0.0425,0.0305,0.0305,0.0305,0.0306,0,0,0.0211,0.0241,0.0252,0.023,0.0272,0.0253,0.0284,0.0286,0.0272,0.0295,0.0289,0.0304,0.03,0.0303,0.0305,0.0321,0.0379,0.033,0.0331,0.0401,0.0459,0.0672,0.0704,0.0339,0.034,0.034,0.0534,0,0.024,0.0249,0.0285,0.0271,0.0253,0.0269,0.0273,0.0271,0.0276,0.0272,0.0287,0.0282,0.0298,0.0288,0.0309,0.0363,0.0398,0.0334,0.0442,0.0448,0.0622,0.072,0.0486,0.0654,0.0544,0.0546,0.0547,0,0.0289,0.0263,0.0251,0.021,0.0209,0.0198,0.0166,0.0176,0.0196,0.0205,0.0224,0.0246,0.0298,0.0285,0.0399,0.0358,0.0411,0.0455,0.0462,0.0669,0.0679,0.061,0.0677,0.0564,0.0563,0.0562,0.0561,0,0.0235,0.0247,0.0206,0.0198,0.0163,0.014,0.0126,0.0135,0.0161,0.0157,0.0212,0.0231,0.0303,0.0334,0.0493,0.0423,0.065,0.0547,0.0796,0.0813,0.0645,0.0649,0.0608,0.0608,0.0607,0.0607,0.0606,0,0.0234,0.0198,0.0152,0.0103,0.0028,0.0039,0.0004,-0.0006,0.0062,0.0151,0.016,0.0291,0.032,0.0481,0.0523,0.0777,0.0682,0.0848,0.0883,0.0647,0.0649,0.0571,0.0564,0.0614,0.0612,0.0611,0.061,0,0.016,0.0171,0.0071,-0.0001,-0.0013,-0.01,-0.0053,-0.0009,0.0024,0.0161,0.0188,0.0372,0.0617,0.0714,0.0846,0.0901,0.1036,0.1131,0.0922,0.0933,0.117,0.1159,0.1385,0.1394,0.1402,0.1409,0.1414,0,0.0116,0.0055,-0.0054,-0.0053,-0.0091,-0.015,-0.0093,-0.0063,0.006,0.0277,0.0411,0.0657,0.0902,0.122,0.13,0.1446,0.1367,0.1339,0.1159,0.1242,0.1252,0.1229,0.1209,0.0922,0.0923,0.0924,0.0924,0,-0.003,-0.007,-0.0149,-0.0125,-0.0105,-0.0063,0.0024,0.0101,0.0262,0.0403,0.0727,0.0907,0.1247,0.1362,0.1573,0.1582,0.1285,0.1377,0.1471,0.0817,0.0836,0.0836,0.0824,0.0932,0.0931,0.093,0.093,0.093,-0.0143,-0.0207,-0.0215,-0.0174,-0.0097,0.0088,0.0145,0.0334,0.0508,0.0762,0.0937,0.1155,0.1228,0.1505,0.1548,0.1532,0.1598,0.1403,0.1384,0.1368,0.1336,0.1373,0.1566,0.1569,0.1571,0.1573,0.1575,0,-0.0242,-0.0214,-0.0187,-0.0089,0.0097,0.0125,0.0328,0.0425,0.0659,0.0868,0.1089,0.1114,0.1239,0.1322,0.1325,0.1399,0.1185,0.1316,0.0944,0.094,0.0936,0.0865,0.0979,0.0978,0.0977,0.0977,0,0,-0.0275,-0.0241,-0.017,0.0122,0.0241,0.0457,0.0568,0.0667,0.0782,0.0936,0.103,0.1187,0.1271,0.1124,0.1107,0.1053,0.0967,0.0994,0.1454,0.1008,0.1002,0.0967,0.0858,0,0,0,0,0]},{"header":{"parameterUnit":"m.s-1","parameterCategory":2,"la1":30.2991,"la2":30.254,"lo1":-89.0895,"lo2":-89.0444,"dy":0.0017,"dx":0.0017,"nx":28,"ny":28,"refTime":"2025-07-09T03:00:00:Z","depth":"2","parameterNumber":3,"parameterNumberName":"V-component_of_CURRENTS"},"data":[0,0,0,0,0,0,0,0,0,0,0,0,0,0,0,0,0,0,0,0,0,0,0,0,0,0,0,0,0,0,0,0,0,0,0,0,0,0,0,0,0,0,0,0,0,0,0,0,0,0,0,0,0,0,0,0,0,0,-0.0236,-0.0237,0,-0.0264,-0.0264,-0.0265,-0.0292,-0.0292,-0.0292,-0.0293,-0.0284,-0.0284,-0.0283,0,0,0,0,0,0,0,0,0,0,0,0,0,-0.02,-0.0201,-0.0236,-0.0237,-0.0237,-0.0264,-0.0264,-0.0265,-0.0291,-0.0292,-0.0292,-0.0293,-0.0285,-0.0284,-0.0283,0,0,0,0,0,0,0,0,0,0,0,0,0,-0.022,-0.0201,-0.0236,-0.0254,-0.0256,-0.0264,-0.0264,-0.0265,-0.0291,-0.0292,-0.0292,-0.0293,-0.0285,-0.0284,-0.0283,-0.0267,0,0,-0.0281,-0.028,0,0,0,0,0,0,0,0,-0.0219,-0.0222,-0.0251,-0.0253,-0.0255,-0.0275,-0.0249,-0.0264,-0.0291,-0.0278,-0.0293,-0.0293,-0.0278,-0.0278,-0.0282,-0.0266,-0.0266,-0.0281,-0.028,-0.028,-0.0279,0,0,0,0,0,0,0,-0.0218,-0.022,-0.0247,-0.0251,-0.0254,-0.0258,-0.0262,-0.0252,-0.0273,-0.0279,-0.0281,-0.0284,-0.0279,-0.0282,-0.0281,-0.0266,-0.0281,-0.028,-0.0279,-0.0279,-0.0253,-0.0253,0,0,0,0,0,0,-0.0215,-0.0219,-0.0246,-0.0248,-0.0238,-0.0258,-0.0262,-0.0268,-0.0274,-0.0276,-0.0284,-0.0285,-0.0284,-0.0282,-0.0281,-0.0307,-0.028,-0.0279,-0.0278,-0.0253,-0.0253,-0.0253,0,0,0,0,0,0,-0.0214,-0.0217,-0.0245,-0.0234,-0.0238,-0.0258,-0.0264,-0.0268,-0.028,-0.0278,-0.028,-0.0293,-0.0284,-0.0282,-0.0285,-0.0305,-0.0278,-0.0278,-0.0253,-0.0253,-0.0253,-0.0328,0,0,0,0,0,0,-0.0213,-0.0216,-0.0221,-0.0234,-0.0239,-0.0257,-0.0264,-0.0268,-0.0281,-0.0283,-0.0286,-0.0286,-0.0284,-0.0286,-0.0284,-0.0303,-0.0277,-0.0254,-0.0253,-0.0253,-0.0326,-0.0331,-0.0335,0,0,0,0,0,-0.0211,-0.0216,-0.0221,-0.0225,-0.0244,-0.0257,-0.026,-0.0276,-0.0281,-0.0288,-0.0292,-0.0286,-0.0282,-0.0285,-0.0283,-0.0302,-0.0254,-0.0253,-0.0253,-0.0324,-0.033,-0.0335,0,0,0,0,0,0,-0.0199,-0.022,-0.0225,-0.0235,-0.0248,-0.0262,-0.027,-0.0277,-0.0287,-0.029,-0.0288,-0.0288,-0.0297,-0.0279,-0.0283,-0.0289,-0.0265,-0.0264,-0.032,-0.0325,-0.0329,-0.0354,-0.0276,0,0,0,0,0,-0.0199,-0.021,-0.0226,-0.0234,-0.0241,-0.0255,-0.0263,-0.0273,-0.0282,-0.0288,-0.0291,-0.0288,-0.0291,-0.0292,-0.0287,-0.029,-0.0257,-0.0296,-0.03,-0.0304,-0.032,-0.0277,-0.0279,-0.0252,-0.0252,-0.0252,0,0,-0.0193,-0.0208,-0.0213,-0.0232,-0.0244,-0.0262,-0.0262,-0.0276,-0.0296,-0.0283,-0.0307,-0.0303,-0.0293,-0.0306,-0.0307,-0.0297,-0.0292,-0.0304,-0.0308,-0.0322,-0.0277,-0.0279,-0.0282,-0.0251,-0.0251,-0.0251,0,0,-0.0193,-0.0205,-0.0217,-0.0232,-0.0253,-0.0266,-0.0271,-0.0289,-0.0304,-0.0325,-0.032,-0.0331,-0.0332,-0.0336,-0.0337,-0.0354,-0.0316,-0.0344,-0.0393,-0.0351,-0.0353,-0.0355,-0.0311,-0.0309,-0.0347,-0.0348,-0.0348,0,-0.0186,-0.0203,-0.022,-0.024,-0.0251,-0.027,-0.0284,-0.0306,-0.0323,-0.0322,-0.0341,-0.0341,-0.0352,-0.0355,-0.039,-0.0368,-0.0333,-0.0381,-0.0359,-0.036,-0.036,-0.0315,-0.0311,-0.0351,-0.0351,-0.035,-0.035,0,-0.0194,-0.0213,-0.0222,-0.0256,-0.0272,-0.0285,-0.0316,-0.033,-0.0352,-0.0364,-0.0374,-0.0392,-0.0383,-0.0401,-0.0425,-0.0428,-0.0397,-0.037,-0.0353,-0.0368,-0.0319,-0.0313,-0.0356,-0.0355,-0.0354,-0.0353,0,0,-0.016,-0.0215,-0.0221,-0.0229,-0.0279,-0.0283,-0.0323,-0.034,-0.0325,-0.0381,-0.0359,-0.0437,-0.0432,-0.0433,-0.0438,-0.0449,-0.0454,-0.0437,-0.0433,-0.0407,-0.0356,-0.0433,-0.0434,-0.042,-0.0419,-0.0419,-0.0318,0,-0.0157,-0.0193,-0.0224,-0.0247,-0.026,-0.029,-0.0306,-0.0327,-0.034,-0.0322,-0.0365,-0.0347,-0.0443,-0.0423,-0.0463,-0.043,-0.0444,-0.0483,-0.0333,-0.0329,-0.0407,-0.0432,-0.0454,-0.0375,-0.0313,-0.0312,-0.0311,0,-0.0153,-0.0174,-0.0208,-0.0219,-0.0223,-0.0243,-0.0238,-0.025,-0.0249,-0.0249,-0.0269,-0.0271,-0.031,-0.0365,-0.0379,-0.0395,-0.0407,-0.0404,-0.0398,-0.0446,-0.0398,-0.0348,-0.0367,-0.0301,-0.0302,-0.0303,-0.0304,0,-0.0116,-0.0153,-0.0177,-0.0191,-0.0219,-0.0224,-0.0226,-0.0228,-0.0187,-0.0182,-0.0128,-0.0182,-0.0153,-0.0207,-0.0277,-0.0302,-0.0268,-0.0263,-0.0343,-0.0345,-0.0326,-0.033,-0.0275,-0.0275,-0.0275,-0.0276,-0.0276,0,-0.009,-0.0108,-0.016,-0.0172,-0.0147,-0.0182,-0.0128,-0.0137,-0.0085,-0.0013,-0.0077,-0.0024,-0.0116,-0.012,-0.0211,-0.0277,-0.0205,-0.0369,-0.0337,-0.0353,-0.036,-0.0266,-0.0266,-0.0272,-0.0273,-0.0273,-0.0274,0,-0.0057,-0.0098,-0.012,-0.0148,-0.0138,-0.0124,-0.0051,0.0014,0.0033,0.0135,0.015,0.0138,0.0102,0.001,-0.0035,-0.0156,-0.0216,-0.0252,-0.0285,-0.0263,-0.0332,-0.0337,-0.0312,-0.0315,-0.0316,-0.0318,-0.0319,0,-0.0038,-0.0064,-0.0098,-0.0063,-0.0076,-0.0033,0.003,0.0062,0.0139,0.0225,0.0287,0.0285,0.0233,0.0118,-0.0065,-0.021,-0.0206,-0.0309,-0.04,-0.0372,-0.0341,-0.0343,-0.0346,-0.0374,-0.0376,-0.0377,-0.0378,0,-0.0014,-0.006,-0.0068,-0.0,0.0051,0.0126,0.0202,0.0271,0.0325,0.0378,0.0422,0.0382,0.0254,0.0054,-0.0155,-0.0257,-0.0304,-0.0345,-0.0251,-0.0398,-0.0432,-0.0402,-0.0401,-0.039,-0.0389,-0.0388,-0.0387,-0.0387,-0.0002,0.0005,-0.0,0.0072,0.0154,0.0243,0.0289,0.0373,0.0439,0.0498,0.0481,0.0413,0.0233,-0.0091,-0.0255,-0.0405,-0.0407,-0.0466,-0.046,-0.0452,-0.0515,-0.0555,-0.0544,-0.0544,-0.0544,-0.0544,-0.0543,0,0.0011,0.0028,0.0104,0.0168,0.0261,0.0297,0.0392,0.0415,0.0444,0.0513,0.0496,0.0292,0.0062,-0.0094,-0.0371,-0.0558,-0.0546,-0.057,-0.0519,-0.0509,-0.0499,-0.0562,-0.0604,-0.0605,-0.0605,-0.0605,0,0,0.002,0.0062,0.0101,0.0235,0.0308,0.038,0.0408,0.043,0.0454,0.0457,0.0438,0.0373,0.0111,-0.0082,-0.0315,-0.0455,-0.0429,-0.0474,-0.0417,-0.0323,-0.031,-0.0445,-0.0533,0,0,0,0,0]}],[{"header":{"parameterUnit":"m.s-1","parameterCategory":2,"la1":30.2991,"la2":30.254,"lo1":-89.0895,"lo2":-89.0444,"dy":0.0017,"dx":0.0017,"nx":28,"ny":28,"refTime":"2025-07-09T03:00:00:Z","depth":"4","parameterNumber":2,"parameterNumberName":"U-component_of_CURRENTS"},"data":[0,0,0,0,0,0,0,0,0,0,0,0,0,0,0,0,0,0,0,0,0,0,0,0,0,0,0,0,0,0,0,0,0,0,0,0,0,0,0,0,0,0,0,0,0,0,0,0,0,0,0,0,0,0,0,0,0,0,-0.0,0.0,0,0.0029,0.0029,0.0029,0.0044,0.0044,0.0044,0.0044,0.0065,0.0066,0.0066,0,0,0,0,0,0,0,0,0,0,0,0,0,-0.0051,-0.0051,-0.0,0.0,0.0001,0.0028,0.0029,0.0029,0.0044,0.0044,0.0044,0.0045,0.0065,0.0066,0.0066,0,0,0,0,0,0,0,0,0,0,0,0,0,-0.0028,-0.005,-0.0,0.0012,0.0014,0.0028,0.0029,0.0029,0.0044,0.0044,0.0044,0.0045,0.0065,0.0065,0.0066,0.0066,0,0,0.0068,0.0068,0,0,0,0,0,0,0,0,-0.0029,-0.0026,0.001,0.0012,0.0013,0.0034,0.0018,0.0042,0.0044,0.0031,0.0044,0.0045,0.0055,0.0056,0.006,0.0067,0.0068,0.0068,0.0069,0.0069,0.0069,0,0,0,0,0,0,0,-0.0031,-0.0027,0.001,0.0011,0.0013,0.0013,0.0017,0.0023,0.0041,0.0033,0.0034,0.0039,0.0055,0.0059,0.006,0.0068,0.0068,0.0069,0.0069,0.0069,0.0106,0.0107,0,0,0,0,0,0,-0.0032,-0.0029,0.0009,0.0011,-0.0007,0.0014,0.0018,0.0026,0.0041,0.0044,0.0039,0.004,0.0058,0.0059,0.0061,0.0104,0.0069,0.0069,0.007,0.0105,0.0106,0.0107,0,0,0,0,0,0,-0.0033,-0.0028,0.0008,-0.0008,-0.0003,0.0015,0.0024,0.0027,0.0035,0.0046,0.0048,0.0045,0.0058,0.006,0.0074,0.0103,0.007,0.007,0.0105,0.0106,0.0106,0.0163,0,0,0,0,0,0,-0.0034,-0.0029,-0.0027,-0.0007,-0.0002,0.0022,0.0024,0.0027,0.0038,0.004,0.0052,0.0054,0.0058,0.0073,0.0075,0.0103,0.0071,0.0104,0.0105,0.0106,0.016,0.0165,0.017,0,0,0,0,0,-0.0036,-0.003,-0.0027,-0.0023,0.0001,0.0023,0.0026,0.0038,0.0038,0.0045,0.0054,0.0053,0.0082,0.0074,0.0076,0.0105,0.0103,0.0105,0.0106,0.0158,0.0164,0.017,0,0,0,0,0,0,-0.0054,-0.0027,-0.0024,-0.0011,0.0006,0.0026,0.0033,0.0039,0.0051,0.0054,0.0059,0.0062,0.0083,0.0081,0.0073,0.0117,0.0093,0.0095,0.0132,0.0138,0.0143,0.0167,0.0071,0,0,0,0,0,-0.0057,-0.0045,-0.0021,-0.0013,-0.0002,0.0014,0.0023,0.0034,0.0049,0.0054,0.0065,0.0075,0.0089,0.0103,0.0107,0.0133,0.0139,0.0152,0.0157,0.0161,0.0181,0.02,0.0209,0.0111,0.0111,0.0111,0,0,-0.0065,-0.0047,-0.0042,-0.0016,-0.0002,0.0026,0.002,0.004,0.0067,0.0054,0.0088,0.0087,0.0095,0.0125,0.0135,0.0131,0.0192,0.0163,0.0167,0.0185,0.0202,0.0212,0.0221,0.0112,0.0112,0.0112,0,0,-0.006,-0.0053,-0.0035,-0.0015,0.0013,0.0029,0.0037,0.0063,0.0078,0.0106,0.0105,0.0122,0.0142,0.0162,0.0173,0.0205,0.0208,0.0205,0.0265,0.0283,0.0292,0.0299,0.0324,0.0333,0.0219,0.0219,0.0219,0,-0.0068,-0.004,-0.0028,0.0003,0.0024,0.0035,0.0066,0.0086,0.0114,0.0138,0.0123,0.0165,0.0165,0.0217,0.0234,0.022,0.0232,0.0244,0.0291,0.0299,0.0306,0.0329,0.0339,0.0222,0.0221,0.0221,0.0221,0,-0.0042,-0.0018,-0.0004,0.0042,0.0065,0.009,0.0125,0.0151,0.0167,0.0193,0.0235,0.0233,0.0263,0.0266,0.0267,0.0322,0.0316,0.0286,0.028,0.032,0.0341,0.035,0.0226,0.0225,0.0224,0.0223,0,0,-0.0062,0.0002,0.0007,0.0036,0.0088,0.011,0.0164,0.022,0.0259,0.0284,0.0332,0.0362,0.036,0.0372,0.0366,0.0396,0.0452,0.0376,0.0376,0.0409,0.0507,0.0486,0.0494,0.0434,0.0435,0.0437,0.0504,0,-0.0045,0.0012,0.0046,0.0101,0.0133,0.0173,0.0224,0.0277,0.0311,0.0357,0.038,0.041,0.0401,0.0407,0.044,0.0439,0.0479,0.0437,0.0457,0.0458,0.0442,0.0504,0.0442,0.0511,0.0513,0.0514,0.0515,0,-0.0031,0.001,0.0068,0.0138,0.0157,0.0204,0.0282,0.0328,0.0405,0.0427,0.0473,0.0476,0.053,0.0493,0.0553,0.0529,0.0536,0.0537,0.0538,0.051,0.0455,0.0461,0.0532,0.053,0.0529,0.0528,0.0527,0,-0.0055,0.002,0.0067,0.0092,0.018,0.0229,0.0281,0.0363,0.0404,0.0473,0.0496,0.0551,0.0566,0.0592,0.0608,0.0581,0.0666,0.0614,0.0611,0.0609,0.0581,0.0571,0.0667,0.0667,0.0666,0.0666,0.0666,0,-0.0052,-0.0018,0.0066,0.0097,0.0171,0.0231,0.031,0.0369,0.0438,0.0498,0.053,0.0566,0.0592,0.0636,0.0643,0.0673,0.0695,0.0649,0.0634,0.0602,0.0594,0.0587,0.0577,0.0669,0.0668,0.0668,0.0667,0,-0.008,-0.0033,0.0034,0.0134,0.0167,0.0229,0.0328,0.0375,0.0442,0.0514,0.0532,0.0592,0.0646,0.0679,0.0721,0.0711,0.0735,0.0739,0.0734,0.0713,0.0655,0.0647,0.0734,0.0734,0.0734,0.0734,0.0734,0,-0.0093,-0.0059,0.0056,0.0109,0.0167,0.0251,0.0305,0.0378,0.0422,0.0531,0.0558,0.063,0.0668,0.0723,0.0748,0.0779,0.0764,0.078,0.07,0.069,0.0667,0.0659,0.0651,0.0734,0.0734,0.0734,0.0734,0,-0.0099,-0.0049,0.002,0.0126,0.02,0.0253,0.0335,0.0357,0.0446,0.0498,0.0576,0.062,0.0684,0.0712,0.0754,0.0766,0.0768,0.078,0.0778,0.0703,0.0691,0.0666,0.0659,0.0734,0.0734,0.0734,0.0734,0,-0.0098,-0.0038,0.006,0.016,0.0225,0.026,0.0294,0.0357,0.0401,0.0513,0.0544,0.0626,0.0686,0.0709,0.0748,0.0764,0.0732,0.0703,0.0704,0.0704,0.0663,0.0641,0.0684,0,0,0,0,0,-0.0093,-0.0007,0.0084,0.019,0.0236,0.0267,0.0319,0.0343,0.0418,0.0464,0.0504,0.0566,0.0631,0.0664,0.067,0.0717,0.0723,0.0722,0.0687,0.0735,0.0735,0.0688,0,0,0,0,0,0,-0.0077,0.0015,0.0093,0.0178,0.0232,0.0269,0.0291,0.0333,0.0355,0.0439,0.0466,0.0543,0.0593,0.0625,0.0664,0.0676,0.0646,0.0772,0.0771,0.0735,0.0735,0.0735,0.0687,0,0,0,0,0]},{"header":{"parameterUnit":"m.s-1","parameterCategory":2,"la1":30.2991,"la2":30.254,"lo1":-89.0895,"lo2":-89.0444,"dy":0.0017,"dx":0.0017,"nx":28,"ny":28,"refTime":"2025-07-09T03:00:00:Z","depth":"4","parameterNumber":3,"parameterNumberName":"V-component_of_CURRENTS"},"data":[0,0,0,0,0,0,0,0,0,0,0,0,0,0,0,0,0,0,0,0,0,0,0,0,0,0,0,0,0,0,0,0,0,0,0,0,0,0,0,0,0,0,0,0,0,0,0,0,0,0,0,0,0,0,0,0,0,0,0.0097,0.0097,0,0.0088,0.0088,0.0088,0.008,0.008,0.008,0.008,0.0018,0.0017,0.0015,0,0,0,0,0,0,0,0,0,0,0,0,0,0.0065,0.0066,0.0097,0.0097,0.0097,0.0088,0.0088,0.0088,0.008,0.008,0.008,0.008,0.0019,0.0017,0.0015,0,0,0,0,0,0,0,0,0,0,0,0,0,0.0068,0.0066,0.0097,0.0093,0.0093,0.0088,0.0088,0.0087,0.008,0.008,0.008,0.008,0.0019,0.0017,0.0014,-0.0002,0,0,0.0007,0.0006,0,0,0,0,0,0,0,0,0.0068,0.007,0.0094,0.0094,0.0093,0.0086,0.0054,0.0055,0.008,0.0083,0.008,0.008,0.0037,0.0033,0.003,-0.0005,-0.0008,0.0007,0.0005,0.0004,0.0003,0,0,0,0,0,0,0,0.0068,0.007,0.0092,0.0094,0.0093,0.0077,0.0078,0.0054,0.0058,0.0083,0.0083,0.0084,0.0036,0.0032,0.0028,-0.0009,0.0007,0.0004,0.0003,0.0002,-0.0075,-0.0076,0,0,0,0,0,0,0.0074,0.007,0.0093,0.0092,0.0082,0.0078,0.0079,0.0087,0.0059,0.0056,0.0084,0.0083,0.0037,0.0031,0.0026,0.0047,0.0004,0.0002,0.0,-0.0074,-0.0075,-0.0076,0,0,0,0,0,0,0.0074,0.0077,0.0093,0.0081,0.0082,0.0079,0.0088,0.0087,0.0082,0.0061,0.0056,0.008,0.0037,0.003,0.0004,0.0043,0.0,-0.0002,-0.0074,-0.0075,-0.0075,0.0062,0,0,0,0,0,0,0.0073,0.0077,0.0081,0.0082,0.0083,0.0102,0.0088,0.0087,0.0084,0.0083,0.0056,0.0051,0.0036,0.0008,0.0002,0.0039,-0.0004,-0.0073,-0.0074,-0.0075,0.0059,0.0066,0.0073,0,0,0,0,0,0.0072,0.0092,0.0081,0.0084,0.0091,0.0103,0.0103,0.0099,0.0083,0.0091,0.0063,0.0051,-0.0003,0.0006,-0.0002,0.0036,-0.0073,-0.0074,-0.0075,0.0055,0.0065,0.0073,0,0,0,0,0,0,0.0081,0.0093,0.0082,0.0103,0.0103,0.0103,0.0111,0.0097,0.0081,0.0076,0.0046,0.0039,0.003,-0.0004,0.0006,0.0002,-0.0041,-0.0043,0.0061,0.0069,0.0077,0.0081,-0.0006,0,0,0,0,0,0.0083,0.0103,0.0102,0.0118,0.012,0.0109,0.011,0.0106,0.0094,0.0088,0.0068,0.0037,0.0018,0.0015,-0.0015,-0.0014,-0.0068,-0.0002,0.0006,0.0013,0.0006,-0.0047,-0.0044,-0.008,-0.008,-0.008,0,0,0.0092,0.01,0.011,0.0121,0.012,0.0153,0.0111,0.0121,0.0151,0.0082,0.0105,0.0058,0.0017,0.0024,0.0018,0.0006,-0.0006,0.0011,0.0019,0.0008,-0.0048,-0.0044,-0.0041,-0.008,-0.008,-0.008,0,0,0.0143,0.0125,0.0168,0.0174,0.018,0.0176,0.0179,0.0175,0.0175,0.0179,0.0138,0.0113,0.0084,0.0077,0.0067,0.0087,0.0026,0.0067,0.0129,0.0079,0.0082,0.0085,0.0031,0.0028,0.0085,0.0085,0.0085,0,0.0152,0.0198,0.0179,0.0225,0.0228,0.0193,0.0232,0.0242,0.023,0.021,0.0202,0.013,0.0121,0.0115,0.0138,0.0114,0.0053,0.0116,0.0093,0.0094,0.0094,0.0038,0.0032,0.0091,0.0091,0.009,0.0089,0,0.0248,0.0271,0.0294,0.0339,0.0342,0.0362,0.0365,0.0361,0.0339,0.0324,0.0288,0.0258,0.0195,0.0215,0.0199,0.0188,0.0135,0.0106,0.0085,0.0107,0.0045,0.0037,0.0101,0.0098,0.0096,0.0095,0,0,0.0297,0.035,0.0357,0.0346,0.039,0.0373,0.0437,0.0432,0.039,0.041,0.0354,0.0385,0.0305,0.0283,0.0245,0.0244,0.0229,0.0185,0.018,0.0157,0.0096,0.01,0.009,0.0187,0.0186,0.0185,0.0059,0,0.0368,0.043,0.0463,0.0489,0.0492,0.0479,0.0502,0.0488,0.0453,0.0388,0.0379,0.0306,0.035,0.0278,0.0296,0.021,0.0208,0.0264,0.0054,0.0048,0.0071,0.0082,0.0182,0.0052,0.005,0.0049,0.0048,0,0.0454,0.046,0.0506,0.0465,0.0464,0.0483,0.041,0.0425,0.0375,0.0333,0.0296,0.0238,0.0233,0.0239,0.0187,0.0206,0.0164,0.0135,0.0128,0.0075,0.0037,0.0016,0.0031,0.0033,0.0034,0.0035,0.0036,0,0.0421,0.0473,0.0477,0.0481,0.0466,0.0455,0.0434,0.0391,0.0344,0.0265,0.0192,0.0168,0.0102,0.0087,0.0069,0.0093,-0.0015,-0.0003,-0.0027,-0.0028,-0.0054,-0.0055,-0.0045,-0.0045,-0.0045,-0.0044,-0.0044,0,0.0452,0.0439,0.0442,0.0427,0.0362,0.0377,0.0292,0.0266,0.02,0.0139,0.0125,0.0072,0.0056,0.0006,0.0012,-0.0033,-0.0064,-0.0022,-0.0058,0.0006,0.0013,-0.0059,-0.0059,-0.0049,-0.0048,-0.0047,-0.0046,0,0.0405,0.0436,0.0395,0.0365,0.0344,0.0276,0.0206,0.0136,0.0095,0.0014,-0.0013,-0.0044,-0.0075,-0.0092,-0.015,-0.0131,-0.0166,-0.0178,-0.0122,-0.0154,-0.0133,-0.0124,-0.0222,-0.0223,-0.0224,-0.0224,-0.0225,0,0.0383,0.0368,0.0312,0.0263,0.0247,0.0164,0.011,0.0074,0.0033,-0.0022,-0.0052,-0.0116,-0.0116,-0.0192,-0.0198,-0.0234,-0.0211,-0.0261,-0.015,-0.0124,-0.015,-0.0141,-0.0132,-0.0226,-0.0226,-0.0226,-0.0226,0,0.0297,0.0286,0.0237,0.0158,0.0097,0.0037,-0.0012,-0.0044,-0.0051,-0.0103,-0.0085,-0.0105,-0.0155,-0.0164,-0.0226,-0.0226,-0.0241,-0.0267,-0.0264,-0.016,-0.013,-0.0153,-0.0144,-0.0229,-0.0229,-0.0228,-0.0228,0,0.0201,0.0144,0.0102,0.0027,-0.0025,-0.0033,-0.0062,-0.0063,-0.0093,-0.0092,-0.0079,-0.01,-0.0119,-0.0163,-0.0195,-0.0227,-0.0199,-0.0189,-0.0189,-0.0187,-0.0116,-0.0069,-0.0184,0,0,0,0,0,0.0102,0.0044,-0.0027,-0.008,-0.01,-0.0107,-0.0114,-0.0114,-0.0097,-0.0077,-0.0066,-0.0077,-0.0108,-0.0131,-0.0155,-0.0213,-0.0229,-0.0246,-0.0223,-0.0243,-0.024,-0.0159,0,0,0,0,0,0,0.0019,-0.005,-0.0055,-0.011,-0.0142,-0.0153,-0.0134,-0.0119,-0.0087,-0.0071,-0.0079,-0.0092,-0.0126,-0.0093,-0.0159,-0.0174,-0.0162,-0.027,-0.027,-0.0244,-0.0242,-0.0239,-0.0155,0,0,0,0,0]}]]